{"data":{"norad_id":68968,"intl_designator":"2026-099T","name":"STARLINK-36665","alt_names":[],"object_type":"PAYLOAD","status":"ACTIVE","operator":null,"country":"US","launch_date":"2026-05-01","launch_site_code":"AFETR","launch_vehicle":null,"mission":null,"orbit_class":"UNKNOWN","rcs_meters":null,"size_class":null,"mass_kg":null,"dimensions":null,"purposes":["comms"],"wikipedia_slug":null,"has_3d_model":false,"image_url":null,"decayed_at":null,"tle_current":{"epoch":"2026-05-25T04:00:03.998880Z","epoch_age_seconds":60090,"freshness":"FRESH","line1":"1 68968U 26099T   26145.16671295 -.02009230  00000+0 -20834-1 0  9993","line2":"2 68968  53.1591 269.9502 0000708  76.5424 275.5580 15.67262861  5011","mean_motion":15.67262861,"eccentricity":7.08e-5,"inclination_deg":53.1591,"raan_deg":269.9502,"arg_perigee_deg":76.5424,"mean_anomaly_deg":275.558,"bstar":-0.020834,"rev_number":501,"period_min":91.879928749234,"perigee_km":366.26109858028,"apogee_km":367.21617297031,"semimajor_km":6744.8756357753,"source":"CELESTRAK","updated_at":"2026-05-25T13:38:22.075645Z"}}}